Hourly Data Report for October 07, 2019

All times are specified in Local Standard Time (LST). Add 1 hour to adjust for Daylight Saving Time where and when it is observed.

SEPT-ILES
QUEBEC
Current Station Operator: ECCC - MSC

50°13'00.000" N
66°15'00.000" W
52.60 m
7047914
71279
XZV

Download Data

Hourly Data (October 2019)
Hourly Data Report for October 7, 2019
TIME Temp Definition
°C
Dew Point Definition
°C
Rel Hum Definition
%
Wind Dir Definition
10's deg

Wind Spd Definition
km/h
Visibility Definition
km
Stn Press Definition
kPa
Hmdx Definition


Wind Chill Definition


Weather Definition


00:00 6.2 4.8 90 9 5   100.72     LegendNANA
01:00 6.6 4.8 88 7 6   100.66     LegendNANA
02:00 6.3 4.9 91 8 3   100.62     LegendNANA
03:00 6.4 5.3 92 7 6   100.59     LegendNANA
04:00 6.5 5.4 92 5 4   100.57     LegendNANA
05:00 6.0 5.0 94 6 3   100.61     LegendNANA
06:00 6.6 5.5 93 3 3   100.60     LegendNANA
07:00 7.5 6.1 91 2 1   100.66     LegendNANA
08:00 8.0 6.5 90 5 3   100.64     LegendNANA
09:00 8.8 6.6 86 15 3   100.69     LegendNANA
10:00 11.4 8.2 80 28 3   100.66     LegendNANA
11:00 11.0 7.5 79 15 5   100.59     LegendNANA
12:00 11.8 8.1 78 16 3   100.52     LegendNANA
13:00 10.0 7.9 87 13 8   100.47     LegendNANA
14:00 10.2 8.0 86 14 6   100.48     LegendNANA
15:00 10.4 8.6 89 20 3   100.46     LegendNANA
16:00 10.3 8.3 87 20 3   100.48     LegendNANA
17:00 9.8 7.5 86 21 4   100.50     LegendNANA
18:00 10.1 7.5 84 25 12   100.53     LegendNANA
19:00 10.0 7.5 84 24 12   100.55     LegendNANA
20:00 9.8 7.6 86 25 12   100.56     LegendNANA
21:00 9.5 7.3 86 26 8   100.54     LegendNANA
22:00 9.2 7.1 87 25 10   100.49     LegendNANA
23:00 8.6 7.0 90 23 7   100.50     LegendNANA

Notes on Data Quality.

Legend

  • E = Estimated
  • M = Missing
  • NA = Not Available
Date modified: